軌道要素
Epoch 2016 July 31.0 TT = JDT 2457600.5
T 2016 Aug. 19.69420 TT MPCW
q 1.3579463 (2000.0) P Q
n 0.16080937 Peri. 191.59706 +0.15629641 -0.95336685
a 3.3491028 Node 249.83293 +0.92677984 +0.23194682
e 0.5945343 Incl. 15.96531 +0.34154146 -0.19311220
P 6.13
From 2877 observations 2003 June 17-2017 Jan. 10, mean residual 0".8.
Nongravitational parameters A1 = +0.35, A2 = -0.0005.
|